Cold Bay, AK

12:05 PM AKDT on March 30, 2017 (GMT -0800)
Cold Bay

Weather History for PACD - November, 2013

Change the Weather History Date:

Sunday, November 24, 2013

  Actual Average Record
Temperature  
Mean Temperature 37 °F 33 °F  
Max Temperature 40 °F 38 °F 52 °F (1970)
Min Temperature 33 °F 29 °F 15 °F (1945)
Degree Days  
Heating Degree Days 28 32  
Month to date heating degree days 607 721  
Since 1 July heating degree days 2317 2828  
Cooling Degree Days 0 0  
Month to date cooling degree days 0 0  
Year to date cooling degree days 0 0  
Moisture  
Dew Point 33 °F    
Average Humidity 88    
Maximum Humidity 100    
Minimum Humidity 75    
Precipitation  
Precipitation 0.49 in 0.18 in 0.83 in (1983)
Month to date precipitation 4.47 3.95  
Year to date precipitation 42.09 36.18  
Snow  
Snow T in 0.40 in 4.40 in (1984)
Month to date snowfall 3.5 7.7  
Since 1 July snowfall 3.5 10.1  
Since 1 September snowfall 3.5 10.1  
Snow Depth T in    
Sea Level Pressure  
Sea Level Pressure 29.42 in    
Wind  
Wind Speed 15 mph (WSW)    
Max Wind Speed 31 mph    
Max Gust Speed 38 mph    
Visibility 6 miles    
Events Rain , Snow    
T = Trace of Precipitation, MM = Missing Value Source: NWS Daily Summary

Daily Weather History Graph

Daily Weather History Graph

Search for Another Location

Airport or City:

Trip Planner

Search our weather history database for the weather conditions in past years. The results will help you decide how hot, cold, wet, or windy it might be!

Date:

Astronomy

Nov. 24, 2013 Rise Set
Actual Time 9:42 AM AKST 5:32 PM AKST
Civil Twilight 8:59 AM AKST 6:15 PM AKST
Nautical Twilight 8:13 AM AKST 7:01 PM AKST
Astronomical Twilight 7:29 AM AKST 7:45 PM AKST
Moon No Moon Rise 2:03 PM AKST (11/24)
Length of Visible Light 9h 16m
Length of Day
7h 50m
Waning Gibbous, 59% of the Moon is Illuminated
Nov 24
Waning Gibbous
Nov 25
Last Quarter
Dec 2
New
Dec 9
First Quarter
Dec 17
Full

Hourly Weather History & Observations

Time (AKST) Temp. Windchill Dew Point Humidity Pressure Visibility Wind Dir Wind Speed Gust Speed Precip Events Conditions
12:35 AM 33.8 °F 20.8 °F 30.2 °F 87% 29.45 in 0.8 mi North 26.5 mph - 0.02 in Snow Light Snow
12:46 AM 33.8 °F 20.8 °F 32.0 °F 93% 29.44 in 1.0 mi North 26.5 mph 33.4 mph 0.04 in Snow Light Snow
12:53 AM 34.0 °F 21.0 °F 32.0 °F 92% 29.44 in 1.5 mi North 26.5 mph 34.5 mph 0.05 in Rain , Snow Light Snow
12:57 AM 33.8 °F 20.3 °F 32.0 °F 93% 29.44 in 2.0 mi North 28.8 mph 34.5 mph 0.00 in Rain , Snow Light Snow
1:17 AM 33.8 °F 21.0 °F 32.0 °F 93% 29.43 in 1.8 mi North 25.3 mph 33.4 mph 0.01 in Snow Light Snow
1:29 AM 33.8 °F 21.0 °F 32.0 °F 93% 29.42 in 2.5 mi North 25.3 mph 34.5 mph 0.02 in Rain , Snow Light Rain
1:37 AM 33.8 °F 21.6 °F 32.0 °F 93% 29.41 in 3.0 mi North 23.0 mph 31.1 mph 0.02 in Rain , Snow Light Rain
1:53 AM 35.1 °F 23.5 °F 32.0 °F 89% 29.41 in 4.0 mi North 21.9 mph - 0.03 in Rain , Snow Light Rain
2:53 AM 35.1 °F 24.8 °F 32.0 °F 89% 29.40 in 3.0 mi North 17.3 mph - 0.04 in Rain , Snow Light Rain
3:19 AM 35.6 °F 25.9 °F 33.8 °F 93% 29.38 in 2.5 mi NNE 16.1 mph - 0.02 in Rain , Snow Light Rain
3:28 AM 35.6 °F 26.6 °F 33.8 °F 93% 29.38 in 3.0 mi NNE 13.8 mph - 0.02 in Rain , Snow Light Rain
3:53 AM 35.1 °F 27.4 °F 33.1 °F 92% 29.37 in 3.0 mi NNE 10.4 mph - 0.03 in Rain , Snow Light Rain
4:37 AM 35.6 °F 31.7 °F 33.8 °F 93% 29.37 in 3.0 mi SW 4.6 mph - 0.03 in Rain Light Rain
4:50 AM 35.6 °F 32.8 °F 33.8 °F 93% 29.37 in 2.5 mi WSW 3.5 mph - 0.04 in Rain Light Rain
4:53 AM 35.1 °F - 33.1 °F 92% 29.37 in 2.5 mi Calm Calm - 0.04 in Rain Light Rain
5:18 AM 35.6 °F - 33.8 °F 93% 29.36 in 1.8 mi Calm Calm - 0.01 in Rain Light Rain
5:28 AM 35.6 °F - 33.8 °F 93% 29.36 in 2.0 mi Calm Calm - 0.01 in Rain Light Rain
5:36 AM 35.6 °F - 33.8 °F 93% 29.36 in 2.0 mi Calm Calm - 0.02 in Rain Light Rain
5:53 AM 35.1 °F 31.0 °F 32.0 °F 89% 29.37 in 1.8 mi West 4.6 mph - 0.03 in Rain Light Rain
6:03 AM 35.6 °F 29.9 °F 32.0 °F 87% 29.36 in 3.0 mi West 6.9 mph - 0.01 in Rain Light Rain
6:34 AM 35.6 °F 28.6 °F 33.8 °F 93% 29.37 in 2.5 mi West 9.2 mph - 0.06 in Rain Light Rain
6:41 AM 35.6 °F 28.0 °F 33.8 °F 93% 29.37 in 3.0 mi West 10.4 mph - 0.06 in Rain Light Rain
6:53 AM 36.0 °F 28.5 °F 33.1 °F 89% 29.37 in 3.0 mi West 10.4 mph - 0.09 in Rain Light Rain
7:34 AM 35.6 °F 32.8 °F 33.8 °F 93% 29.37 in 2.0 mi West 3.5 mph - 0.06 in Rain Light Rain
7:53 AM 37.0 °F 32.4 °F 36.0 °F 96% 29.37 in 2.0 mi SW 5.8 mph - 0.09 in Rain Light Rain
8:20 AM 37.4 °F 32.8 °F 37.4 °F 100% 29.37 in 3.0 mi SSW 5.8 mph - 0.02 in Rain Light Rain
8:28 AM 37.4 °F 30.8 °F 35.6 °F 93% 29.37 in 2.5 mi SSW 9.2 mph - 0.03 in Rain Light Rain
8:51 AM 37.4 °F 32.1 °F 35.6 °F 93% 29.37 in 3.0 mi SW 6.9 mph - 0.05 in Rain Light Rain
8:52 AM 37.9 °F 32.7 °F 36.0 °F 93% 29.38 in 3.0 mi SW 6.9 mph - 0.06 in Rain Light Rain
8:55 AM 37.4 °F 32.8 °F 35.6 °F 93% 29.37 in 3.0 mi SSW 5.8 mph - 0.00 in Rain Light Rain
9:21 AM 37.4 °F 32.8 °F 35.6 °F 93% 29.38 in 4.0 mi WSW 5.8 mph - 0.03 in Rain Light Rain
9:53 AM 39.0 °F 31.0 °F 34.0 °F 82% 29.39 in 10.0 mi SW 13.8 mph - 0.03 in Rain Light Rain
10:53 AM 39.9 °F 31.4 °F 33.1 °F 77% 29.39 in 10.0 mi SW 16.1 mph 19.6 mph 0.00 in   Mostly Cloudy
11:53 AM 37.9 °F 28.9 °F 32.0 °F 79% 29.39 in 10.0 mi WSW 16.1 mph 24.2 mph N/A   Mostly Cloudy
12:53 PM 37.0 °F 26.4 °F 32.0 °F 82% 29.41 in 10.0 mi SW 20.7 mph 28.8 mph N/A   Mostly Cloudy
1:53 PM 37.0 °F 26.2 °F 32.0 °F 82% 29.41 in 10.0 mi WSW 21.9 mph - N/A   Mostly Cloudy
2:53 PM 37.0 °F 26.4 °F 32.0 °F 82% 29.42 in 10.0 mi WSW 20.7 mph - N/A   Mostly Cloudy
3:53 PM 37.0 °F 26.2 °F 32.0 °F 82% 29.42 in 10.0 mi WSW 21.9 mph - N/A   Mostly Cloudy
4:53 PM 36.0 °F 24.7 °F 30.9 °F 82% 29.44 in 10.0 mi WSW 21.9 mph - N/A   Mostly Cloudy
5:49 PM 35.6 °F 24.5 °F 30.2 °F 81% 29.44 in 10.0 mi WSW 20.7 mph - N/A   Scattered Clouds
5:53 PM 36.0 °F 25.3 °F 30.9 °F 82% 29.45 in 10.0 mi WSW 19.6 mph 26.5 mph N/A   Scattered Clouds
6:53 PM 35.1 °F 23.8 °F 30.9 °F 85% 29.46 in 10.0 mi WSW 20.7 mph - N/A   Clear
7:24 PM 35.6 °F 25.2 °F 30.2 °F 81% 29.46 in 10.0 mi WSW 18.4 mph 26.5 mph N/A   Partly Cloudy
7:53 PM 35.1 °F 25.2 °F 30.9 °F 85% 29.48 in 10.0 mi WSW 16.1 mph - N/A   Partly Cloudy
8:08 PM 35.6 °F 24.8 °F 30.2 °F 81% 29.47 in 10.0 mi WSW 19.6 mph - N/A   Mostly Cloudy
8:16 PM 35.6 °F 25.5 °F 30.2 °F 81% 29.48 in 10.0 mi WSW 17.3 mph - N/A   Partly Cloudy
8:34 PM 35.6 °F 26.2 °F 30.2 °F 81% 29.48 in 7.0 mi WSW 15.0 mph - N/A   Mostly Cloudy
8:48 PM 35.6 °F 27.1 °F 30.2 °F 81% 29.49 in 10.0 mi WSW 12.7 mph - N/A   Scattered Clouds
8:53 PM 35.1 °F 25.5 °F 30.9 °F 85% 29.50 in 10.0 mi WSW 15.0 mph - N/A   Mostly Cloudy
9:06 PM 35.6 °F 26.6 °F 30.2 °F 81% 29.50 in 10.0 mi WSW 13.8 mph - N/A   Partly Cloudy
9:53 PM 35.1 °F 26.9 °F 30.9 °F 85% 29.51 in 10.0 mi WSW 11.5 mph - N/A   Partly Cloudy
10:53 PM 34.0 °F 25.0 °F 30.9 °F 89% 29.52 in 10.0 mi WSW 12.7 mph - N/A   Scattered Clouds
11:31 PM 35.6 °F 26.6 °F 30.2 °F 81% 29.51 in 10.0 mi WSW 13.8 mph - N/A   Overcast
11:46 PM 35.6 °F 27.1 °F 32.0 °F 87% 29.52 in 6.0 mi WSW 12.7 mph - N/A   Overcast
11:53 PM 35.1 °F 26.9 °F 32.0 °F 89% 29.52 in 6.0 mi WSW 11.5 mph - N/A   Overcast